Natchitoches, LA

3:53 AM CST on February 20, 2018 (GMT -0600)
Natchitoches Regional

Weather History for KIER - October, 2013

Change the Weather History Date:

Friday, October 25, 2013

  Actual Average Record
Temperature  
Mean Temperature 58 °F -  
Max Temperature 67 °F 75 °F 88 °F (1941)
Min Temperature 49 °F 51 °F 30 °F (1952)
Degree Days  
Heating Degree Days 7    
Growing Degree Days 8 (Base 50)    
Moisture  
Dew Point 43 °F    
Average Humidity 60    
Maximum Humidity 79    
Minimum Humidity 41    
Precipitation  
Precipitation 0.00 in - - ()
Sea Level Pressure  
Sea Level Pressure 30.37 in    
Wind  
Wind Speed 7 mph (ENE)    
Max Wind Speed 15 mph    
Max Gust Speed 23 mph    
Visibility 9 miles    
Events      
Averages and records for this station are not official NWS values.
T = Trace of Precipitation, MM = Missing Value Source: NWS Daily Summary

Daily Weather History Graph

Daily Weather History Graph

Search for Another Location

Airport or City:

Trip Planner

Search our weather history database for the weather conditions in past years. The results will help you decide how hot, cold, wet, or windy it might be!

Date:

Astronomy

Oct. 25, 2013 Rise Set
Actual Time 7:23 AM CDT 6:29 PM CDT
Civil Twilight 6:58 AM CDT 6:53 PM CDT
Nautical Twilight 6:29 AM CDT 7:22 PM CDT
Astronomical Twilight 6:01 AM CDT 7:50 PM CDT
Moon 11:54 PM CDT (10/25) 12:58 PM CDT (10/25)
Length of Visible Light 11h 55m
Length of Day
11h 05m
Waning Gibbous, 62% of the Moon is Illuminated
Oct 25
Waning Gibbous
Oct 26
Last Quarter
Nov 3
New
Nov 9
First Quarter
Nov 17
Full

Hourly Weather History & Observations

Time (CDT) Temp. Dew Point Humidity Pressure Visibility Wind Dir Wind Speed Gust Speed Precip Events Conditions
12:15 AM 60.6 °F 52.7 °F 75% 30.28 in 10.0 mi ENE 6.9 mph - N/A   Clear
12:35 AM 60.3 °F 52.2 °F 75% 30.28 in 10.0 mi ENE 9.2 mph - N/A   Clear
12:55 AM 59.7 °F 51.6 °F 75% 30.29 in 10.0 mi East 6.9 mph - N/A   Clear
1:15 AM 58.6 °F 50.5 °F 74% 30.30 in 10.0 mi ENE 8.1 mph - N/A   Clear
1:35 AM 57.4 °F 50.0 °F 76% 30.30 in 10.0 mi ENE 9.2 mph - N/A   Clear
1:55 AM 56.5 °F 49.1 °F 76% 30.31 in 10.0 mi East 3.5 mph - N/A   Clear
2:15 AM 55.9 °F 47.5 °F 73% 30.32 in 10.0 mi ENE 4.6 mph - N/A   Clear
2:35 AM 55.9 °F 45.9 °F 69% 30.32 in 10.0 mi ENE 5.8 mph - N/A   Clear
2:55 AM 55.0 °F 45.5 °F 70% 30.32 in 10.0 mi ENE 6.9 mph - N/A   Clear
3:15 AM 54.7 °F 45.0 °F 70% 30.34 in 10.0 mi ENE 6.9 mph - N/A   Clear
3:35 AM 54.0 °F 44.8 °F 71% 30.34 in 10.0 mi ENE 8.1 mph - N/A   Clear
3:55 AM 53.8 °F 44.6 °F 71% 30.35 in 10.0 mi ENE 6.9 mph - N/A   Clear
4:15 AM 53.2 °F 44.6 °F 72% 30.35 in 10.0 mi ENE 5.8 mph - N/A   Clear
4:35 AM 52.7 °F 44.4 °F 73% 30.36 in 10.0 mi ENE 8.1 mph - N/A   Clear
4:55 AM 52.0 °F 43.9 °F 74% 30.37 in 10.0 mi ENE 6.9 mph - N/A   Clear
5:15 AM 51.3 °F 43.7 °F 75% 30.38 in 10.0 mi ENE 6.9 mph - N/A   Clear
5:35 AM 50.9 °F 43.7 °F 76% 30.38 in 10.0 mi ENE 5.8 mph - N/A   Clear
5:55 AM 50.5 °F 43.5 °F 77% 30.39 in 10.0 mi ENE 4.6 mph - N/A   Clear
6:15 AM 50.0 °F 43.0 °F 77% 30.40 in 10.0 mi ENE 6.9 mph - N/A   Clear
6:35 AM 49.8 °F 42.8 °F 77% 30.40 in 10.0 mi ENE 5.8 mph - N/A   Clear
6:55 AM 49.1 °F 42.8 °F 79% 30.40 in 10.0 mi ENE 5.8 mph - N/A   Clear
7:15 AM 49.1 °F 42.1 °F 77% 30.41 in 10.0 mi ENE 6.9 mph - N/A   Clear
7:35 AM 49.1 °F 41.9 °F 76% 30.41 in 10.0 mi ENE 6.9 mph - N/A   Clear
7:55 AM 50.0 °F 41.5 °F 73% 30.42 in 10.0 mi East 6.9 mph - N/A   Clear
8:15 AM 50.7 °F 41.5 °F 71% 30.43 in 10.0 mi East 8.1 mph - N/A   Clear
8:35 AM 52.0 °F 41.5 °F 68% 30.44 in 10.0 mi East 8.1 mph - N/A   Clear
8:55 AM 52.7 °F 40.6 °F 64% 30.44 in 10.0 mi East 9.2 mph - N/A   Clear
9:15 AM 53.8 °F 39.9 °F 59% 30.45 in 10.0 mi East 10.4 mph 18.4 mph N/A   Clear
9:35 AM 55.0 °F 38.3 °F 53% 30.45 in 10.0 mi East 12.7 mph 19.6 mph N/A   Clear
9:55 AM 55.8 °F 38.3 °F 52% 30.45 in 10.0 mi East 15.0 mph 23.0 mph N/A   Clear
10:15 AM 57.0 °F 38.5 °F 50% 30.45 in 10.0 mi East 11.5 mph - N/A   Clear
10:35 AM 57.4 °F 38.5 °F 49% 30.45 in 10.0 mi East 13.8 mph 17.3 mph N/A   Clear
10:55 AM 58.8 °F 39.0 °F 48% 30.45 in 10.0 mi East 10.4 mph 17.3 mph N/A   Clear
11:15 AM 59.7 °F 39.4 °F 47% 30.45 in 10.0 mi East 10.4 mph - N/A   Clear
11:35 AM 59.9 °F 39.6 °F 47% 30.44 in 10.0 mi East 10.4 mph - N/A   Clear
11:55 AM 60.8 °F 39.2 °F 45% 30.44 in 10.0 mi East 9.2 mph - N/A   Clear
12:15 PM 62.4 °F 40.3 °F 44% 30.43 in 10.0 mi ENE 6.9 mph - N/A   Clear
12:35 PM 62.8 °F 39.9 °F 43% 30.42 in 10.0 mi ENE 5.8 mph - N/A   Clear
12:55 PM 63.5 °F 39.9 °F 42% 30.42 in 10.0 mi East 5.8 mph 16.1 mph N/A   Clear
1:15 PM 64.2 °F 40.5 °F 42% 30.40 in 10.0 mi ENE 4.6 mph - N/A   Clear
1:35 PM 64.9 °F 41.2 °F 42% 30.40 in 10.0 mi East 8.1 mph - N/A   Clear
1:55 PM 65.5 °F 41.4 °F 41% 30.39 in 10.0 mi East 9.2 mph - N/A   Clear
2:15 PM 66.2 °F 42.6 °F 42% 30.37 in 10.0 mi NE 8.1 mph - N/A   Clear
2:35 PM 66.4 °F 42.1 °F 41% 30.37 in 10.0 mi Calm Calm - N/A   Clear
2:55 PM 66.7 °F 42.4 °F 41% 30.36 in 10.0 mi NE 5.8 mph - N/A   Clear
3:15 PM 67.1 °F 42.6 °F 41% 30.36 in 10.0 mi NE 3.5 mph - N/A   Clear
3:35 PM 67.6 °F 43.9 °F 42% 30.35 in 10.0 mi East 6.9 mph - N/A   Clear
3:55 PM 67.1 °F 43.2 °F 42% 30.34 in 10.0 mi NNE 8.1 mph - N/A   Clear
4:15 PM 67.1 °F 43.9 °F 43% 30.34 in 10.0 mi ENE 6.9 mph - N/A   Clear
4:35 PM 67.1 °F 43.9 °F 43% 30.34 in 10.0 mi East 6.9 mph - N/A   Clear
4:55 PM 66.4 °F 43.7 °F 44% 30.33 in 10.0 mi East 6.9 mph - N/A   Clear
5:15 PM 65.7 °F 43.7 °F 45% 30.33 in 10.0 mi ENE 5.8 mph - N/A   Clear
5:35 PM 64.8 °F 43.7 °F 46% 30.33 in 10.0 mi ENE 8.1 mph - N/A   Clear
5:55 PM 63.5 °F 43.5 °F 48% 30.33 in 5.0 mi ENE 6.9 mph - N/A   Haze
6:15 PM 61.7 °F 43.7 °F 52% 30.33 in 5.0 mi ENE 5.8 mph - N/A   Haze
6:35 PM 59.0 °F 43.9 °F 57% 30.33 in 4.0 mi ENE 5.8 mph - N/A   Haze
6:55 PM 58.3 °F 43.9 °F 59% 30.33 in 7.0 mi ENE 5.8 mph - N/A   Clear
7:15 PM 57.4 °F 43.7 °F 60% 30.33 in 5.0 mi East 5.8 mph - N/A   Haze
7:35 PM 56.7 °F 43.7 °F 62% 30.33 in 10.0 mi ENE 6.9 mph - N/A   Clear
7:55 PM 56.3 °F 43.0 °F 61% 30.33 in 7.0 mi East 4.6 mph - N/A   Clear
8:15 PM 55.6 °F 42.3 °F 61% 30.34 in 4.0 mi East 3.5 mph - N/A   Haze
8:35 PM 54.9 °F 42.3 °F 63% 30.34 in 5.0 mi East 3.5 mph - N/A   Haze
8:55 PM 54.5 °F 41.9 °F 62% 30.34 in 5.0 mi East 5.8 mph - N/A   Haze
9:15 PM 53.8 °F 41.9 °F 64% 30.34 in 5.0 mi East 3.5 mph - N/A   Haze
9:35 PM 53.4 °F 41.7 °F 65% 30.34 in 5.0 mi East 3.5 mph - N/A   Haze
9:55 PM 52.2 °F 41.9 °F 68% 30.34 in 10.0 mi East 3.5 mph - N/A   Clear
10:15 PM 51.8 °F 41.7 °F 68% 30.35 in 10.0 mi East 4.6 mph - N/A   Clear
10:35 PM 51.6 °F 41.2 °F 68% 30.35 in 7.0 mi East 4.6 mph - N/A   Clear
10:55 PM 51.1 °F 41.0 °F 68% 30.35 in 7.0 mi Calm Calm - N/A   Clear
11:15 PM 50.9 °F 40.5 °F 67% 30.34 in 7.0 mi East 3.5 mph - N/A   Clear
11:35 PM 50.2 °F 40.3 °F 69% 30.33 in 10.0 mi East 3.5 mph - N/A   Clear
11:55 PM 50.0 °F 40.1 °F 69% 30.33 in 10.0 mi Calm Calm - N/A   Clear